CZ-4C DEB, 43281

Orbit data source: Space-Track

CZ-4C DEB, 43281 is space debris in LEO originally from a launch on Tue, 10 Apr 2018 UTC launched from the Jiuquan Satellite Launch Center, China (JSC). Debris objects in space refer to the collection of defunct objects orbiting the Earth. Examples of debris include non-operational satellites, rocket bodies, and fragments generated from explosions, collisions, or faulty payload assembly.

Loading next visibility...
Identifier
43281, 2018-034G
Orbit
LEO
Country
Flag of CNCN / PRC
Related business
Manufacturer
Unknown
Mission
Spacecraft
Bus & Motor
Unknown
Mass
Unknown
Launch date (UTC)
2018-04-10 (8 years ago)
Launch vehicle
Unknown
Launch site
Jiuquan Satellite Launch Center, China (JSC)
Object type
Payload
Rocket body
Debris
Shape & HBR
Unknown shape, 3.2 m
Radar Cross Section
Large (>1 m²)

Expand to show TLE details & history
Last TLE update: 6 hours ago

TLE from 6 hours ago
0 CZ-4C DEB
1 43281U 18034G   26123.57751714 -.00000004  00000-0  11794-3 0  9995
2 43281  63.3966 218.4015 0268096   7.5814 352.9142 13.44726216331672
Epoch: 2026-05-03T13:51Z
TLE epoch observation values (Epoch: 2026-05-03T13:51:37.480Z)
Latitude
-0.00002°
Longitude
149.01626°
Altitude
894.823 km
Speed
7.503 km/s
True Right ascension
14h 33m 36s
True Declination
0° 00' 00"
Sunlit
Object was in full shadow at epoch
Visualization orbit readout
Latitude
Unknown
Longitude
Unknown
Altitude
Unknown
Speed
Unknown
Apparent Right ascension
Unknown
Apparent Declination
Unknown
Sunlit
N/A
Visualization observer readout
Local Sidereal Time
03:47:55
Azimuth
Unknown
Elevation
Unknown
Doppler factor
Unknown
Orbital elements
Apogee altitude
1,290.787 km
Perigee altitude
890.322 km
Semi-major axis
7,468.691 km
Eccentricity
0.02681
Inclination
63.3966°
RAAN
218.4015°
Arg. of periapsis
7.5814°
True anomaly
352.52222°
Mean anomaly
352.9142°
Eccentric anomaly
352.71954°
Mean motion
3.36261 °/min
Orbital period
107.06 mins
BSTAR
0.00011794
Loading maneuver chart data...
Computing Atmospheric mass density...
Loading historical data...
Loading historical data...
Loading historical data...
Loading historical data...
Loading historical data...
Loading historical data...
Loading historical data...

Documentation

Showing up to 5 results
|